This is the latest recevied weather packets stored in our database for station/object N4AN. If no packets are shown the sender has not sent any weather packets the latest 10 day(s).
| Time | Temp. | Humidity | Pressure | Rain* | Wind** | Luminosity | Snow |
|---|---|---|---|---|---|---|---|
| 1788034932 | 29.44° C | 79% | 1010 hPa | 0 mm | - | - | - |
| 1788034631 | 29.44° C | 79% | 1010 hPa | 0 mm | - | - | - |
| 1788034331 | 28.89° C | 79% | 1010 hPa | 0 mm | - | - | - |
| 1788034030 | 28.89° C | 79% | 1010.2 hPa | 0 mm | - | - | - |
| 1788033727 | 28.33° C | 81% | 1010.1 hPa | 0 mm | - | - | - |
| 1788033425 | 28.33° C | 81% | 1010.2 hPa | 0 mm | - | - | - |
| 1788033125 | 28.33° C | 82% | 1010.2 hPa | 0 mm | - | - | - |
| 1788032822 | 26.67° C | 83% | 1010.3 hPa | 0 mm | - | - | - |
| 1788032522 | 27.22° C | 83% | 1010.6 hPa | 0 mm | - | - | - |
| 1788032222 | 27.22° C | 83% | 1010.7 hPa | 0 mm | - | - | - |
| 1788031621 | 27.22° C | 82% | 1010.9 hPa | 0 mm | - | - | - |
| 1788031321 | 27.22° C | 82% | 1011.4 hPa | 0 mm | - | - | - |
| 1788031021 | 27.22° C | 81% | 1011.5 hPa | 0 mm | - | - | - |
| 1788030720 | 27.22° C | 80% | 1011.8 hPa | 0 mm | - | - | - |
| 1788030416 | 27.78° C | 79% | 1012 hPa | 0 mm | - | - | - |
| 1788030116 | 28.33° C | 78% | 1012 hPa | 0 mm | - | - | - |
| 1788029815 | 28.89° C | 78% | 1011.8 hPa | 0 mm | - | - | - |
| 1788029518 | 28.89° C | 79% | 1011.7 hPa | 0 mm | - | - | - |
| 1788029215 | 28.89° C | 80% | 1011.6 hPa | 0 mm | - | - | - |
| 1788028914 | 28.89° C | 82% | 1011.5 hPa | 1.27 mm | - | - | - |
| 1788028608 | 27.78° C | 85% | 1011.4 hPa | 1.78 mm | - | - | - |
| 1788028308 | 26.67° C | 87% | 1011.6 hPa | 1.78 mm | - | - | - |
| 1788028006 | 26.11° C | 87% | 1011.9 hPa | 0 mm | - | - | - |
| 1788027404 | 26.11° C | 87% | 1012.6 hPa | 1.02 mm | - | - | - |
| 1788027103 | 26.11° C | 87% | 1012.8 hPa | 1.27 mm | - | - | - |
* Rain latest hour (hover to see other rain measurements)
** Current wind speed in m/s (hover to see current wind gust speed)